[[{"header":{"parameterUnit":"m.s-1","parameterCategory":1,"la1":30.2991,"la2":30.254,"lo1":-89.0895,"lo2":-89.0444,"dy":0.0017,"dx":0.0017,"nx":28,"ny":28,"refTime":"2024-10-01T09:00:00:Z","depth":0,"parameterNumber":2,"parameterNumberName":"U-component_of_WINDS"},"data":[0,0,0,0,0,0,0,0,0,0,0,0,0,0,0,0,0,0,0,0,0,0,0,0,0,0,0,0,0,0,0,0,0,0,0,0,0,0,0,0,0,0,0,0,0,0,0,0,0,0,0,0,0,0,0,0,0,0,-0.5869,-0.5869,0,-0.5916,-0.5917,-0.5917,-0.5878,-0.5877,-0.5875,-0.5873,-0.5922,-0.5925,-0.5928,0,0,0,0,0,0,0,0,0,0,0,0,0,-0.5744,-0.5746,-0.5868,-0.5869,-0.587,-0.5916,-0.5917,-0.5917,-0.5879,-0.5877,-0.5875,-0.5873,-0.5921,-0.5925,-0.5928,0,0,0,0,0,0,0,0,0,0,0,0,0,-0.5795,-0.5747,-0.5868,-0.5856,-0.5855,-0.5916,-0.5917,-0.5917,-0.5879,-0.5877,-0.5874,-0.5872,-0.592,-0.5924,-0.5928,-0.6004,0,0,-0.5941,-0.5943,0,0,0,0,0,0,0,0,-0.5792,-0.58,-0.5857,-0.5857,-0.5856,-0.5889,-0.589,-0.5946,-0.588,-0.587,-0.5873,-0.5871,-0.5913,-0.5918,-0.5932,-0.6006,-0.6008,-0.5942,-0.5944,-0.5946,-0.5947,0,0,0,0,0,0,0,-0.5789,-0.5798,-0.5887,-0.5858,-0.5858,-0.5848,-0.5852,-0.5901,-0.5905,-0.5871,-0.5868,-0.5874,-0.5912,-0.5928,-0.5933,-0.6009,-0.5942,-0.5945,-0.5948,-0.595,-0.6146,-0.6149,0,0,0,0,0,0,-0.5787,-0.5795,-0.5886,-0.5889,-0.5818,-0.5852,-0.5857,-0.5881,-0.5904,-0.5905,-0.5876,-0.5872,-0.5922,-0.5928,-0.5934,-0.6024,-0.5946,-0.595,-0.5952,-0.6144,-0.6147,-0.615,0,0,0,0,0,0,-0.5784,-0.5795,-0.5884,-0.5841,-0.5852,-0.5857,-0.5884,-0.5883,-0.5899,-0.5908,-0.5909,-0.5892,-0.592,-0.5928,-0.5987,-0.6026,-0.5952,-0.5956,-0.6141,-0.6145,-0.6149,-0.6205,0,0,0,0,0,0,-0.5781,-0.5794,-0.5823,-0.5842,-0.5854,-0.5936,-0.5886,-0.5886,-0.5906,-0.5901,-0.5923,-0.5924,-0.5919,-0.5981,-0.5991,-0.603,-0.5959,-0.6137,-0.6142,-0.6147,-0.62,-0.621,-0.622,0,0,0,0,0,-0.5776,-0.5837,-0.5825,-0.5836,-0.589,-0.5938,-0.5945,-0.5938,-0.5909,-0.5938,-0.5944,-0.5923,-0.6019,-0.5987,-0.5998,-0.6039,-0.6135,-0.6141,-0.6147,-0.6195,-0.6208,-0.6219,0,0,0,0,0,0,-0.5823,-0.584,-0.5826,-0.5895,-0.5916,-0.5932,-0.5968,-0.5952,-0.5981,-0.5976,-0.5965,-0.597,-0.6032,-0.6041,-0.6005,-0.6113,-0.6072,-0.6081,-0.6105,-0.6118,-0.6128,-0.6125,-0.5963,0,0,0,0,0,-0.5842,-0.5879,-0.5891,-0.5951,-0.5962,-0.5963,-0.5984,-0.5976,-0.5997,-0.6006,-0.6016,-0.6037,-0.6072,-0.6095,-0.6127,-0.62,-0.6204,-0.6234,-0.6244,-0.6252,-0.626,-0.6299,-0.6313,-0.617,-0.617,-0.617,0,0,-0.588,-0.5893,-0.5918,-0.5961,-0.5976,-0.6015,-0.5971,-0.6014,-0.6043,-0.6012,-0.6068,-0.6076,-0.6099,-0.6165,-0.6194,-0.6174,-0.63,-0.6259,-0.6266,-0.627,-0.6307,-0.632,-0.6332,-0.6174,-0.6173,-0.6173,0,0,-0.597,-0.5984,-0.6035,-0.6051,-0.6074,-0.6075,-0.6087,-0.6105,-0.611,-0.6165,-0.6143,-0.6177,-0.6237,-0.6254,-0.6271,-0.6366,-0.6348,-0.6377,-0.643,-0.6468,-0.6479,-0.6489,-0.6524,-0.6537,-0.6384,-0.6385,-0.6385,0,-0.6015,-0.6074,-0.6064,-0.6109,-0.6128,-0.6102,-0.6154,-0.6169,-0.6202,-0.6216,-0.6193,-0.6267,-0.6281,-0.635,-0.6374,-0.6387,-0.6401,-0.6375,-0.6478,-0.6488,-0.6497,-0.6531,-0.6544,-0.6388,-0.6388,-0.6387,-0.6387,0,-0.6128,-0.6169,-0.6207,-0.624,-0.6263,-0.6312,-0.6309,-0.6334,-0.6324,-0.6327,-0.6383,-0.6398,-0.6433,-0.6449,-0.644,-0.6517,-0.6504,-0.648,-0.6439,-0.6515,-0.6546,-0.6558,-0.6393,-0.6392,-0.6391,-0.639,0,0,-0.6251,-0.6277,-0.6291,-0.6306,-0.6329,-0.636,-0.6406,-0.644,-0.6462,-0.6485,-0.6524,-0.6575,-0.6553,-0.6571,-0.6564,-0.6597,-0.6673,-0.6569,-0.6569,-0.6588,-0.676,-0.6779,-0.6794,-0.666,-0.6662,-0.6664,-0.6758,0,-0.6343,-0.6425,-0.6417,-0.6495,-0.6533,-0.6507,-0.6547,-0.6566,-0.6569,-0.6601,-0.6604,-0.6641,-0.6608,-0.662,-0.6651,-0.6657,-0.6707,-0.665,-0.6697,-0.6699,-0.6694,-0.681,-0.683,-0.6918,-0.677,-0.6772,-0.6773,0,-0.6463,-0.649,-0.6571,-0.6588,-0.6604,-0.6641,-0.6671,-0.6702,-0.6722,-0.6722,-0.6742,-0.6729,-0.6775,-0.6732,-0.6796,-0.6757,-0.6775,-0.6781,-0.6784,-0.6789,-0.6742,-0.6819,-0.6946,-0.696,-0.6792,-0.6791,-0.6789,0,-0.6546,-0.6602,-0.6659,-0.6671,-0.6692,-0.6719,-0.6729,-0.6746,-0.6767,-0.6793,-0.6807,-0.6838,-0.6856,-0.688,-0.6875,-0.6844,-0.694,-0.6897,-0.6942,-0.6942,-0.6965,-0.6964,-0.7098,-0.6975,-0.6975,-0.6974,-0.6974,0,-0.665,-0.6702,-0.6696,-0.6731,-0.6787,-0.6777,-0.6833,-0.6839,-0.6855,-0.689,-0.6869,-0.6903,-0.6893,-0.6926,-0.6922,-0.6976,-0.6984,-0.6985,-0.6984,-0.6988,-0.6988,-0.7001,-0.6996,-0.6978,-0.6977,-0.6976,-0.6976,0,-0.6754,-0.6752,-0.6812,-0.6826,-0.6831,-0.6872,-0.6884,-0.6917,-0.6918,-0.6963,-0.6973,-0.6974,-0.7012,-0.7009,-0.7051,-0.7048,-0.7115,-0.7106,-0.7109,-0.7107,-0.7153,-0.715,-0.7302,-0.7321,-0.7184,-0.7185,-0.7186,0,-0.6821,-0.686,-0.6879,-0.6901,-0.6913,-0.6949,-0.697,-0.6961,-0.6984,-0.7009,-0.7038,-0.7074,-0.7102,-0.7163,-0.7168,-0.72,-0.7192,-0.7243,-0.7197,-0.72,-0.7194,-0.7193,-0.7197,-0.7253,-0.7254,-0.7256,-0.7257,0,-0.6942,-0.6939,-0.6971,-0.7002,-0.7028,-0.7052,-0.7074,-0.7093,-0.7086,-0.7112,-0.7151,-0.7173,-0.7215,-0.7251,-0.7281,-0.7291,-0.7273,-0.7271,-0.7283,-0.7289,-0.7289,-0.7291,-0.7135,-0.7268,-0.7267,-0.7266,-0.7265,-0.7265,-0.7031,-0.7064,-0.7082,-0.7118,-0.7133,-0.7154,-0.7185,-0.719,-0.7222,-0.7256,-0.7248,-0.7292,-0.731,-0.7348,-0.7361,-0.7394,-0.7376,-0.7394,-0.7398,-0.7403,-0.7409,-0.7283,-0.74,-0.7399,-0.7399,-0.7399,-0.7398,0,-0.7151,-0.7162,-0.7195,-0.7226,-0.7254,-0.7233,-0.7256,-0.7281,-0.7319,-0.7338,-0.7366,-0.741,-0.7444,-0.7451,-0.7483,-0.7509,-0.7501,-0.7518,-0.7517,-0.7519,-0.7423,-0.741,-0.7523,-0.7523,-0.7523,-0.7523,-0.7523,-0.7523,-0.7218,-0.7273,-0.7272,-0.7335,-0.7344,-0.7387,-0.7402,-0.7421,-0.7435,-0.7485,-0.7514,-0.7518,-0.7531,-0.7565,-0.7595,-0.7596,-0.761,-0.763,-0.7628,-0.7538,-0.7526,-0.7514,-0.7501,-0.7632,-0.7632,-0.7721,-0.7722,-0.7722]},{"header":{"parameterUnit":"m.s-1","parameterCategory":1,"la1":30.2991,"la2":30.254,"lo1":-89.0895,"lo2":-89.0444,"dy":0.0017,"dx":0.0017,"nx":28,"ny":28,"refTime":"2024-10-01T09:00:00:Z","depth":0,"parameterNumber":3,"parameterNumberName":"V-component_of_WINDS"},"data":[0,0,0,0,0,0,0,0,0,0,0,0,0,0,0,0,0,0,0,0,0,0,0,0,0,0,0,0,0,0,0,0,0,0,0,0,0,0,0,0,0,0,0,0,0,0,0,0,0,0,0,0,0,0,0,0,0,0,-3.3066,-3.3068,0,-3.3185,-3.3187,-3.3188,-3.3181,-3.3179,-3.3177,-3.3176,-3.3294,-3.3299,-3.3303,0,0,0,0,0,0,0,0,0,0,0,0,0,-3.2829,-3.2834,-3.3066,-3.3068,-3.3069,-3.3185,-3.3187,-3.3188,-3.3181,-3.3179,-3.3177,-3.3175,-3.3293,-3.3298,-3.3304,0,0,0,0,0,0,0,0,0,0,0,0,0,-3.2939,-3.2835,-3.3066,-3.308,-3.3082,-3.3185,-3.3187,-3.3189,-3.3182,-3.3179,-3.3176,-3.3174,-3.3291,-3.3298,-3.3305,-3.3401,0,0,-3.3327,-3.333,0,0,0,0,0,0,0,0,-3.2932,-3.2947,-3.3076,-3.3079,-3.3082,-3.3166,-3.3147,-3.326,-3.3182,-3.3144,-3.3176,-3.3173,-3.3253,-3.3263,-3.3291,-3.3406,-3.3411,-3.3327,-3.3331,-3.3335,-3.3337,0,0,0,0,0,0,0,-3.2925,-3.2942,-3.3113,-3.3078,-3.3082,-3.3079,-3.3091,-3.3168,-3.3211,-3.3147,-3.3147,-3.3161,-3.3254,-3.3284,-3.3294,-3.3413,-3.3327,-3.3333,-3.3338,-3.334,-3.3612,-3.3614,0,0,0,0,0,0,-3.2915,-3.2936,-3.3109,-3.3117,-3.2999,-3.3085,-3.3099,-3.3141,-3.3211,-3.3219,-3.3163,-3.316,-3.3273,-3.3286,-3.3298,-3.3415,-3.3334,-3.3341,-3.3345,-3.3609,-3.3612,-3.3615,0,0,0,0,0,0,-3.291,-3.293,-3.3105,-3.3026,-3.3048,-3.3092,-3.3139,-3.3145,-3.3175,-3.3223,-3.323,-3.3186,-3.3272,-3.3288,-3.3375,-3.3419,-3.3344,-3.3351,-3.3605,-3.361,-3.3614,-3.3648,0,0,0,0,0,0,-3.2903,-3.2929,-3.2966,-3.3027,-3.3053,-3.3181,-3.3142,-3.3149,-3.3188,-3.3185,-3.3246,-3.3254,-3.3271,-3.3365,-3.3382,-3.3427,-3.3356,-3.3602,-3.3607,-3.3613,-3.3643,-3.3653,-3.3662,0,0,0,0,0,-3.2894,-3.297,-3.2968,-3.2989,-3.3101,-3.3184,-3.3198,-3.3217,-3.3191,-3.3229,-3.326,-3.3252,-3.3411,-3.3374,-3.3393,-3.3441,-3.3599,-3.3606,-3.3612,-3.3639,-3.3651,-3.3662,0,0,0,0,0,0,-3.2912,-3.2979,-3.2977,-3.3075,-3.3124,-3.3182,-3.323,-3.3229,-3.3285,-3.328,-3.33,-3.3314,-3.3402,-3.343,-3.3387,-3.3537,-3.3501,-3.3512,-3.3515,-3.3527,-3.3536,-3.3527,-3.3362,0,0,0,0,0,-3.2928,-3.299,-3.3045,-3.3126,-3.3151,-3.3186,-3.3223,-3.3234,-3.3285,-3.3305,-3.3342,-3.339,-3.3451,-3.3491,-3.3549,-3.3648,-3.366,-3.369,-3.3699,-3.3706,-3.3715,-3.3769,-3.3782,-3.3637,-3.3637,-3.3637,0,0,-3.296,-3.3004,-3.3042,-3.3131,-3.317,-3.3233,-3.3204,-3.3272,-3.3319,-3.3315,-3.34,-3.3429,-3.3484,-3.3577,-3.362,-3.3603,-3.3758,-3.3715,-3.372,-3.3725,-3.3777,-3.3791,-3.3803,-3.3642,-3.3641,-3.364,0,0,-3.3051,-3.3091,-3.3163,-3.3203,-3.3263,-3.3286,-3.3304,-3.3363,-3.3382,-3.3468,-3.3466,-3.3521,-3.3626,-3.3665,-3.3699,-3.3806,-3.38,-3.3824,-3.3871,-3.3923,-3.3935,-3.3945,-3.3982,-3.3996,-3.3833,-3.3833,-3.3833,0,-3.3083,-3.318,-3.32,-3.327,-3.3308,-3.3308,-3.3381,-3.3418,-3.3494,-3.352,-3.35,-3.3632,-3.3669,-3.3771,-3.3797,-3.3825,-3.3844,-3.3817,-3.3932,-3.3942,-3.3952,-3.3988,-3.4002,-3.3835,-3.3835,-3.3835,-3.3835,0,-3.3216,-3.3283,-3.3334,-3.3408,-3.3453,-3.3523,-3.3553,-3.3595,-3.3602,-3.3627,-3.3714,-3.3759,-3.3827,-3.3852,-3.3858,-3.3955,-3.3943,-3.3927,-3.3892,-3.3968,-3.4002,-3.4016,-3.3839,-3.3838,-3.3837,-3.3837,0,0,-3.3322,-3.3407,-3.3425,-3.3458,-3.3524,-3.3576,-3.3646,-3.3714,-3.3749,-3.3801,-3.386,-3.3948,-3.3935,-3.3973,-3.3984,-3.403,-3.4111,-3.4009,-3.4011,-3.4026,-3.4219,-3.423,-3.4245,-3.4108,-3.4111,-3.4113,-3.4214,0,-3.3419,-3.3545,-3.3565,-3.3675,-3.3737,-3.3738,-3.3799,-3.3845,-3.387,-3.3925,-3.3953,-3.4015,-3.3993,-3.4016,-3.4061,-3.4091,-3.415,-3.4084,-3.4162,-3.4164,-3.4147,-3.4263,-3.4275,-3.4368,-3.4228,-3.423,-3.4232,0,-3.355,-3.3607,-3.3723,-3.3781,-3.3807,-3.3862,-3.3925,-3.3978,-3.4031,-3.4046,-3.4089,-3.4095,-3.4166,-3.4128,-3.4226,-3.4182,-3.4214,-3.4234,-3.4238,-3.4245,-3.4202,-3.4273,-3.4399,-3.4413,-3.4253,-3.4251,-3.425,0,-3.3615,-3.372,-3.3803,-3.3832,-3.3901,-3.3939,-3.397,-3.402,-3.4059,-3.4114,-3.4139,-3.4201,-3.4235,-3.4283,-3.4305,-3.4275,-3.4402,-3.4365,-3.4415,-3.4415,-3.4441,-3.4439,-3.4573,-3.4463,-3.4463,-3.4463,-3.4462,0,-3.3721,-3.3792,-3.3833,-3.3884,-3.3963,-3.3985,-3.4063,-3.4092,-3.4137,-3.4193,-3.4197,-3.4249,-3.4275,-3.4331,-3.4349,-3.4427,-3.4442,-3.4456,-3.446,-3.4455,-3.4454,-3.4477,-3.4471,-3.4467,-3.4466,-3.4465,-3.4464,0,-3.3807,-3.3837,-3.3928,-3.3986,-3.4003,-3.4058,-3.4108,-3.4157,-3.4182,-3.4253,-3.4271,-3.4309,-3.4375,-3.4402,-3.4483,-3.4494,-3.4585,-3.4583,-3.4567,-3.4568,-3.4616,-3.4611,-3.477,-3.4791,-3.4667,-3.4668,-3.4669,0,-3.3872,-3.3927,-3.3992,-3.4031,-3.4063,-3.4124,-3.4165,-3.4188,-3.423,-3.4294,-3.4335,-3.4401,-3.4455,-3.456,-3.4595,-3.4656,-3.4656,-3.4708,-3.4666,-3.4659,-3.4657,-3.4653,-3.4658,-3.4715,-3.4716,-3.4717,-3.4718,0,-3.3986,-3.3998,-3.4057,-3.4121,-3.4169,-3.422,-3.427,-3.4301,-3.4332,-3.4378,-3.4446,-3.4488,-3.4571,-3.4636,-3.47,-3.473,-3.4729,-3.4731,-3.4746,-3.4742,-3.473,-3.4737,-3.4588,-3.4727,-3.4726,-3.4726,-3.4725,-3.4725,-3.4063,-3.4112,-3.4166,-3.423,-3.4271,-3.4317,-3.4366,-3.4398,-3.4455,-3.4525,-3.4535,-3.4608,-3.4658,-3.4744,-3.4777,-3.4833,-3.482,-3.4841,-3.4846,-3.4851,-3.4854,-3.4722,-3.4845,-3.4844,-3.4844,-3.4844,-3.4844,0,-3.4177,-3.4211,-3.4271,-3.4341,-3.4392,-3.4388,-3.4443,-3.4485,-3.4549,-3.4597,-3.4651,-3.4729,-3.4792,-3.4832,-3.4896,-3.4933,-3.4934,-3.4949,-3.4946,-3.4953,-3.4863,-3.4843,-3.4947,-3.4947,-3.4947,-3.4947,-3.4947,-3.4947,-3.4242,-3.4324,-3.4343,-3.4444,-3.4478,-3.455,-3.4582,-3.4624,-3.4663,-3.475,-3.4803,-3.4829,-3.4873,-3.494,-3.4998,-3.5008,-3.5031,-3.5047,-3.5056,-3.497,-3.4959,-3.4949,-3.4931,-3.5052,-3.5052,-3.5141,-3.5142,-3.5143]}]]